Content
SEND FEEDBACK

Daily
Averages
Monthly
Summary
United States of America

HAZELWOOD, MISSOURI


Home > North America > United States > Missouri
Elevation: 570 feet     Latitude: 38 45N     Longitude: 090 22W

WEATHER
 
SELECT A DAY
Number of Records: 198,984;   Date Range: 1/1/95 - 9/30/14
 
SHARE

PRINT THIS DATA

[ ← Previous Day ]
WEATHER ALMANAC - FEBRUARY 10, 2013
[ Next Day → ]
[ °C ]   °F
Weather ElementAverageHighLow
Temperature49.3 °F59 °F (3:54 pm)41 °F (3:54 am)
Dewpoint40.2 °F50 °F (2:33 pm)27 °F (6:54 pm)
Humidity73.2 %87 % (8:07 am)31 % (6:54 pm)
Barometer29.72 in29.95 in (1:54 am)29.57 in (2:33 pm)
Wind Speed12 mph27.6 mph (11:54 pm)
Wind Gust39.1 mph (11:54 pm)
Weather ElementAverage
Visibility9.2 mi
Wind DirectionSSE (154.7 °)

Weather ElementTotal
Precipitation0.35 in
Heating Degree Days15 (Base 65)
Averaged from 32 records on February 10, 2013
WEATHER CONDITIONS BREAKOUT
WIND DIRECTION BREAKOUT
WEATHER BY HOUR - FEBRUARY 10, 2013
[ °C ]   °F
Local TimeTemperatureDewpointHumidityBarometerVisibilityWind DirectionWind SpeedGust SpeedPrecipitationEventsConditions
1:54 AM42.1 °F36.0 °F79 %29.95 in10.0 miSSE (160°)9.2 mph23.0 mph0.06 inOvercast
2:54 AM42.1 °F36.0 °F79 %29.94 in9.0 miVariable3.5 mph0.01 inRainLight Rain
3:54 AM41.0 °F36.0 °F82 %29.89 in9.0 miESE (120°)4.6 mph0.01 inRainLight Rain
4:54 AM42.1 °F36.0 °F79 %29.86 in10.0 miVariable3.5 mph0.00 inOvercast
5:18 AM42.8 °F35.6 °F76 %29.83 in10.0 miESE (120°)4.6 mph0.00 inRain-ThunderstormLight Rain
5:33 AM42.8 °F37.4 °F81 %29.83 in10.0 miCalm0.00 inOvercast
5:46 AM42.8 °F37.4 °F81 %29.82 in10.0 miCalm0.00 inOvercast
5:54 AM43.0 °F37.9 °F82 %29.83 in10.0 miEast (90°)4.6 mph0.00 inOvercast
6:54 AM44.1 °F39.0 °F82 %29.79 in10.0 miSE (140°)8.1 mph0.00 inOvercast
7:27 AM46.4 °F39.2 °F76 %29.75 in10.0 miSSE (150°)16.1 mph26.5 mph0.01 inRain-ThunderstormLight Rain
7:54 AM46.0 °F42.1 °F86 %29.80 in2.0 miSouth (170°)16.1 mph31.1 mph0.09 inRain-ThunderstormHeavy Thunderstorms and Rain
8:07 AM46.4 °F42.8 °F87 %29.77 in2.0 miSSE (150°)11.5 mph21.9 mph0.02 inRainRain
8:54 AM46.9 °F43.0 °F86 %29.75 in2.0 miSSE (150°)15.0 mph24.2 mph0.11 inRainRain
9:20 AM48.2 °F44.6 °F87 %29.72 in10.0 miSSE (160°)13.8 mph25.3 mph0.01 inOvercast
9:54 AM48.9 °F44.1 °F83 %29.68 in10.0 miSSE (150°)15.0 mph35.7 mph0.01 inOvercast
10:54 AM51.1 °F46.0 °F83 %29.66 in10.0 miSSE (160°)16.1 mph26.5 mph0.02 inOvercast
11:49 AM53.6 °F46.4 °F77 %29.63 in10.0 miSouth (170°)17.3 mph32.2 mphMostly Cloudy
11:54 AM52.0 °F46.0 °F80 %29.64 in10.0 miSSE (160°)20.7 mph31.1 mphOvercast
12:30 PM51.8 °F46.4 °F82 %29.61 in10.0 miSouth (180°)15.0 mph26.5 mphOvercast
12:54 PM51.1 °F46.0 °F83 %29.62 in10.0 miSouth (180°)11.5 mph20.7 mphOvercast
1:54 PM53.1 °F48.0 °F83 %29.59 in10.0 miSSW (200°)11.5 mph19.6 mphOvercast
2:33 PM55.4 °F50.0 °F82 %29.57 in10.0 miSouth (190°)12.7 mph19.6 mphMostly Cloudy
2:54 PM55.9 °F50.0 °F80 %29.58 in10.0 miSouth (190°)10.4 mphScattered Clouds
3:54 PM59.0 °F50.0 °F72 %29.58 in10.0 miSouth (190°)12.7 mphPartly Cloudy
4:54 PM59.0 °F50.0 °F72 %29.60 in10.0 miSouth (170°)8.1 mphScattered Clouds
5:54 PM55.9 °F50.0 °F80 %29.63 in10.0 miSouth (180°)8.1 mphScattered Clouds
6:54 PM57.9 °F27.0 °F31 %29.65 in10.0 miSW (220°)18.4 mph28.8 mphClear
7:54 PM55.9 °F28.0 °F34 %29.67 in10.0 miSW (230°)16.1 mph21.9 mphClear
8:54 PM54.0 °F28.9 °F38 %29.70 in10.0 miWSW (240°)15.0 mph21.9 mphClear
9:54 PM51.8 °F28.4 °F41 %29.71 in10.0 miSW (230°)17.3 mph25.3 mphClear
10:54 PM50.0 °F30.0 °F46 %29.74 in10.0 miWSW (250°)20.7 mph29.9 mphClear
11:54 PM46.0 °F28.9 °F51 %29.79 in10.0 miWSW (250°)27.6 mph39.1 mphClear
Hourly data recorded from KSUS, located miles away from Hazelwood, Missouri







STORIES FROM OUR PARTNERS